Regional Weather Roundup
Issued by NWS Melbourne, FL

Current Version | Previous Version | Text Only | Print | Product List | Glossary On
Versions: 1 2 3 4 5 6 7 8 9 10 11 12 13 14 15 16 17 18 19 20 21 22 23 24 25 26 27 28
000
ASUS42 KMLB 100510
RWRMLB
HOURLY WEATHER ROUNDUP AROUND FLORIDA
NATIONAL WEATHER SERVICE OFFICE MELBOURNE FL
100 AM EDT SAT JUN 10 2023

CITY           SKY/WX    TMP DP  RH WIND       PRES   REMARKS
MELBOURNE      MOCLDY    70  67  90 W6        29.84S
FORT PIERCE    CLEAR     70  69  97 CALM      29.84S
ORLANDO INTL   MOCLDY    74  71  91 W3        29.85F
DAYTONA BEACH  PTCLDY    72  69  90 CALM      29.86S
VERO BEACH     PTCLDY    69  67  93 N3        29.85R
$$
...ELSEWHERE ACROSS CENTRAL FLORIDA...

CITY           SKY/WX    TMP DP  RH WIND       PRES   REMARKS
PATRICK AFB    MOCLDY    74  69  81 W9        29.81S
KSC            CLOUDY    72  71  97 CALM      29.82S
CAPE CANAVERAL CLOUDY    80  76  89 W7        29.81S
SEBASTIAN        N/A    N/A N/A N/A MISG        N/A
ORLANDO EXEC   PTCLDY    74  69  85 SW3       29.86S
LEESBURG       CLEAR     72  69  90 CALM      29.87S
SANFORD        CLEAR     74  69  85 NW3       29.85F
DELAND         CLEAR     71  68  92 CALM      29.87R
WINTER HAVEN   PTCLDY    76  68  76 CALM      29.87F
KISSIMMEE      PTCLDY    74  71  91 CALM        N/A
OKEECHOBEE     CLEAR     72  72 100 W3        29.84S
TAMPA          PTCLDY    79  72  79 CALM      29.86F
$$
...NORTHERN FLORIDA...

CITY           SKY/WX    TMP DP  RH WIND       PRES   REMARKS
PALM COAST     FOG       70  70 100 CALM      29.85F VSB 1/2
ST AUGUSTINE     N/A     70  69  97 CALM      29.87S
OCALA          CLEAR     70  68  93 N7        29.87F
GAINESVILLE    CLEAR     67  66  97 W3        29.88F FOG
JACKSONVILLE   PTCLDY    71  69  93 CALM      29.86S
TALLAHASSEE    CLEAR     74  71  91 CALM      29.85S
$$
...ALONG THE SOUTHEAST COAST TO THE KEYS...

CITY           SKY/WX    TMP DP  RH WIND       PRES   REMARKS
STUART         CLEAR     76  70  80 S3        29.85S
WEST PALM BCH  CLEAR     78  73  84 W6        29.84F
MIAMI          PTCLDY    81  73  76 SW6       29.86F
KEY WEST       CLEAR     83  74  74 NW3       29.87S
$$
...MARINE REPORTS...

STATION/POSITION TIME  TEMP    WIND        PRES    WAVE   SWELL
                       AIR SEA DIR/SP/G            HT/PER HT/PER
                 (UTC) (F)     (DEG/KT/KT) (MB)    (FT/S) (FT/S)
ST AUGUSTINE FP  0500   71 77  320/  2/  2 1011.2F
20NM E CAPE CANA 0450          330/  8/ 10 1008.8F   2/14   2/14
TRIDENT PIER     0430   75 86  270/  4/  5 1009.6S
4NM E PORT CANAV 0456      81                N/A     1/13
6NM NE FPR INLET 0456      82                N/A     1/13
SETTLEMENT PT GB 0500   80     180/ 10/ 12 1010.2F
$$



USA.gov is the U.S. government's official web portal to all federal, state and local government web resources and services.